星链-31930 (STARLINK-31930)

导读 | 星芒AI

STARLINK-31930 是 SpaceX Starlink 卫星互联网项目中的第 31930 颗卫星,属于低轨卫星群,旨在为全球用户提供高速互联网服务。该卫星采用可重复使用发射技术,由猎鹰 9 号火箭送入近地轨道,具备高带宽与低延迟特性,支持偏远地区网络接入。其部署进一步完善了 Starlink 网络覆盖,提升系统稳定性和服务能力。

基本信息
目录编号:
60596
目录名称:
STARLINK-31930
国际标识:
2024-150P
轨道中心:
EARTH
卫星名称:
星链-31930 (STARLINK-31930)
卫星全名:
星链-31930 (STARLINK-31930)
卫星状态:
在轨 (已飞行440 天)
发射日期:
2024-08-20 UTC
国别 :
美国 (US)
星等 :
--
轨道信息
数据来源 国际轨道数据
星历时间: 2025-11-01T06:48:58+0800
2天前
查看轨道信息
半长轴: 6853.4km
偏心率: 0.0001459
轨道倾角: 53.160°
近地点辐角 84.709°
升交点赤经 184.807°
平近点角 275.407°
近地点: 474.265km
远地点: 476.265km
周期: 94.106分钟
每日圈数: 15.301841
详细信息
卫星平台:
Starlink v2.0 mini
运营商:
太空探索技术公司
运营商所在国:
美国
制造商(研发单位):
太空探索技术公司
制造商所在国:
美国
使用方式:
暂无
卫星简介
星链(Starlink)计划是由太空探索技术公司(SpaceX)提出的一个巨型低轨卫星互联网星座项目,计划在2019年至2024年间在太空搭建由约1.2万颗卫星组成的“星链”网络,其中1584颗将部署在地球上空550千米处的近地轨道,并从2020年开始工作。该卫星仍在工作。
2D轨道图
3D轨道图
轨道高度分析图
轨道倾角分析图
轨道综合分析图
查看轨道综合分析图